| time (UTC) | temp F | wind direction | speed knots | gust knots | rain 1hr in | rain 24hr in | rain mn in | humidity % | barometer mb |
| 20260510030845 | 58 | 230 | 4.3 | 6.1 | 0.00 | 0.00 | 0.00 | 93 | 1011.4 |
| 20260510030337 | 58 | 258 | 2.6 | 5.2 | 0.00 | 0.00 | 0.00 | 93 | 1011.4 |
| 20260510025829 | 58 | 238 | 3.5 | 5.2 | 0.00 | 0.00 | 0.00 | 93 | 1011.4 |
| 20260510025322 | 59 | 285 | 3.5 | 3.5 | 0.00 | 0.00 | 0.00 | 93 | 1011.1 |
| 20260510024814 | 58 | 273 | 0.0 | 5.2 | 0.00 | 0.00 | 0.00 | 93 | 1011.1 |
| 20260510024307 | 58 | 279 | 1.7 | 6.1 | 0.00 | 0.00 | 0.00 | 93 | 1011.1 |
| 20260510023800 | 58 | 244 | 3.5 | 7.0 | 0.00 | 0.00 | 0.00 | 92 | 1011.1 |
| 20260510023251 | 59 | 229 | 3.5 | 7.0 | 0.00 | 0.00 | 0.00 | 92 | 1011.1 |
| 20260510022744 | 59 | 267 | 2.6 | 6.1 | 0.00 | 0.00 | 0.00 | 92 | 1011.1 |
| 20260510022236 | 59 | 237 | 2.6 | 6.1 | 0.00 | 0.00 | 0.00 | 92 | 1011.1 |
| 20260510021729 | 59 | 258 | 3.5 | 6.1 | 0.00 | 0.00 | 0.00 | 92 | 1011.1 |
| 20260510021221 | 59 | 236 | 5.2 | 7.8 | 0.00 | 0.00 | 0.00 | 92 | 1011.1 |
| 20260510020713 | 59 | 232 | 3.5 | 7.8 | 0.00 | 0.00 | 0.00 | 91 | 1010.7 |
| 20260510020206 | 59 | 232 | 2.6 | 7.0 | 0.00 | 0.00 | 0.00 | 91 | 1010.7 |
| 20260510015658 | 59 | 262 | 3.5 | 7.0 | 0.00 | 0.00 | 0.00 | 91 | 1010.7 |
| 20260510015151 | 59 | 205 | 6.1 | 8.7 | 0.00 | 0.00 | 0.00 | 91 | 1010.7 |
| 20260510014135 | 59 | 230 | 5.2 | 8.7 | 0.00 | 0.00 | 0.00 | 91 | 1010.7 |
| 20260510013628 | 60 | 247 | 7.0 | 8.7 | 0.00 | 0.00 | 0.00 | 90 | 1010.7 |
| 20260510013120 | 60 | 294 | 3.5 | 7.8 | 0.00 | 0.00 | 0.00 | 90 | 1010.7 |
| 20260510012613 | 60 | 216 | 3.5 | 7.8 | 0.00 | 0.00 | 0.00 | 89 | 1010.7 |
| 20260510012105 | 60 | 272 | 3.5 | 7.8 | 0.00 | 0.00 | 0.00 | 89 | 1010.7 |
| 20260510011558 | 60 | 278 | 5.2 | 8.7 | 0.00 | 0.00 | 0.00 | 89 | 1010.7 |
| 20260510011050 | 60 | 259 | 5.2 | 8.7 | 0.00 | 0.00 | 0.00 | 89 | 1010.7 |
| 20260510010542 | 60 | 247 | 6.1 | 8.7 | 0.00 | 0.00 | 0.00 | 89 | 1010.7 |
| 20260510010035 | 60 | 218 | 7.0 | 8.7 | 0.00 | 0.00 | 0.00 | 88 | 1010.7 |
| 20260510005527 | 61 | 245 | 5.2 | 7.8 | 0.00 | 0.00 | 0.00 | 88 | 1010.7 |
| 20260510005019 | 61 | 258 | 3.5 | 8.7 | 0.00 | 0.00 | 0.00 | 89 | 1010.7 |
| 20260510004512 | 61 | 239 | 3.5 | 12.2 | 0.00 | 0.00 | 0.00 | 88 | 1010.7 |
| 20260510004004 | 61 | 222 | 3.5 | 12.2 | 0.00 | 0.00 | 0.00 | 88 | 1010.7 |
| 20260510003458 | 61 | 256 | 7.8 | 11.3 | 0.00 | 0.00 | 0.00 | 86 | 1010.7 |
| 20260510002950 | 61 | 195 | 7.0 | 12.2 | 0.00 | 0.00 | 0.00 | 87 | 1010.7 |
| 20260510002441 | 62 | 238 | 8.7 | 12.2 | 0.00 | 0.00 | 0.00 | 86 | 1010.7 |
| 20260510001934 | 62 | 240 | 8.7 | 9.6 | 0.00 | 0.00 | 0.00 | 85 | 1010.7 |
| 20260510001426 | 62 | 222 | 2.6 | 9.6 | 0.00 | 0.00 | 0.00 | 86 | 1010.7 |
| 20260510000918 | 62 | 230 | 5.2 | 11.3 | 0.00 | 0.00 | 0.00 | 85 | 1010.7 |
| 20260510000411 | 62 | 221 | 6.1 | 11.3 | 0.00 | 0.00 | 0.00 | 86 | 1010.7 |
| 20260509235903 | 62 | 256 | 7.8 | 12.2 | 0.00 | 0.00 | 0.00 | 84 | 1010.7 |
| 20260509235356 | 63 | 192 | 7.0 | 12.2 | 0.00 | 0.00 | 0.00 | 83 | 1010.7 |
| 20260509234849 | 63 | 268 | 6.1 | 12.2 | 0.00 | 0.00 | 0.00 | 83 | 1010.7 |
| 20260509234340 | 64 | 250 | 6.1 | 12.2 | 0.00 | 0.00 | 0.00 | 82 | 1010.7 |
| 20260509232818 | 65 | 235 | 5.2 | 12.2 | 0.00 | 0.00 | 0.00 | 80 | 1010.7 |
| 20260509232310 | 64 | 216 | 4.3 | 12.2 | 0.00 | 0.00 | 0.00 | 80 | 1010.7 |
| 20260509231803 | 65 | 220 | 8.7 | 11.3 | 0.00 | 0.00 | 0.00 | 78 | 1010.7 |
| 20260509231255 | 66 | 231 | 6.1 | 11.3 | 0.00 | 0.00 | 0.00 | 78 | 1010.7 |
| 20260509230747 | 65 | 248 | 7.0 | 11.3 | 0.00 | 0.00 | 0.00 | 79 | 1010.7 |
| 20260509230240 | 66 | 202 | 9.6 | 11.3 | 0.00 | 0.00 | 0.00 | 79 | 1010.7 |
| 20260509225732 | 65 | 263 | 7.0 | 11.3 | 0.00 | 0.00 | 0.00 | 78 | 1010.7 |
| 20260509224716 | 67 | 212 | 5.2 | 9.6 | 0.00 | 0.00 | 0.00 | 76 | 1011.1 |
| 20260509224209 | 67 | 274 | 4.3 | 8.7 | 0.00 | 0.00 | 0.00 | 75 | 1011.1 |
| 20260509223154 | 66 | 212 | 7.0 | 13.0 | 0.00 | 0.00 | 0.00 | 78 | 1011.1 |
| 20260509221631 | 67 | 239 | 7.8 | 13.0 | 0.00 | 0.00 | 0.00 | 76 | 1011.1 |
| 20260509221123 | 67 | 220 | 8.7 | 12.2 | 0.00 | 0.00 | 0.00 | 76 | 1011.4 |
| 20260509220616 | 67 | 228 | 7.8 | 11.3 | 0.00 | 0.00 | 0.00 | 76 | 1011.4 |
| 20260509220108 | 67 | 259 | 7.0 | 11.3 | 0.00 | 0.00 | 0.00 | 77 | 1011.4 |
| 20260509215053 | 67 | 274 | 2.6 | 11.3 | 0.00 | 0.00 | 0.00 | 76 | 1011.4 |
| 20260509214545 | 67 | 281 | 5.2 | 11.3 | 0.00 | 0.00 | 0.00 | 75 | 1011.8 |
| 20260509214038 | 67 | 235 | 7.0 | 13.0 | 0.00 | 0.00 | 0.00 | 76 | 1011.8 |
| 20260509213530 | 67 | 259 | 4.3 | 13.9 | 0.00 | 0.00 | 0.00 | 75 | 1011.8 |
| 20260509212514 | 67 | 224 | 5.2 | 12.2 | 0.00 | 0.00 | 0.00 | 76 | 1011.8 |
| 20260509212007 | 67 | 242 | 7.8 | 12.2 | 0.00 | 0.00 | 0.00 | 74 | 1011.8 |
| 20260509211459 | 68 | 224 | 4.3 | 9.6 | 0.00 | 0.00 | 0.00 | 74 | 1011.8 |
| 20260509210952 | 67 | 245 | 4.3 | 11.3 | 0.00 | 0.00 | 0.00 | 74 | 1011.8 |
| 20260509210444 | 68 | 261 | 7.0 | 11.3 | 0.00 | 0.00 | 0.00 | 73 | 1011.8 |
| 20260509205937 | 69 | 245 | 9.6 | 9.6 | 0.00 | 0.00 | 0.00 | 72 | 1011.8 |
| 20260509205429 | 68 | 268 | 5.2 | 9.6 | 0.00 | 0.00 | 0.00 | 74 | 1012.1 |
| 20260509204922 | 68 | 255 | 5.2 | 9.6 | 0.00 | 0.00 | 0.00 | 75 | 1012.1 |
| 20260509204413 | 67 | 210 | 7.0 | 9.6 | 0.00 | 0.00 | 0.00 | 75 | 1012.1 |
| 20260509203906 | 68 | 232 | 7.0 | 9.6 | 0.00 | 0.00 | 0.00 | 73 | 1012.1 |
| 20260509203358 | 67 | 216 | 8.7 | 9.6 | 0.00 | 0.00 | 0.00 | 74 | 1012.1 |
| 20260509202851 | 67 | 262 | 7.0 | 9.6 | 0.00 | 0.00 | 0.00 | 74 | 1012.1 |
| 20260509202343 | 67 | 273 | 7.8 | 11.3 | 0.00 | 0.00 | 0.00 | 75 | 1012.1 |
| 20260509201836 | 67 | 238 | 7.8 | 11.3 | 0.00 | 0.00 | 0.00 | 74 | 1012.1 |
| 20260509201328 | 68 | 243 | 3.5 | 9.6 | 0.00 | 0.00 | 0.00 | 73 | 1012.1 |
| 20260509200820 | 67 | 220 | 4.3 | 9.6 | 0.00 | 0.00 | 0.00 | 74 | 1012.1 |
| 20260509200313 | 67 | 230 | 3.5 | 11.3 | 0.00 | 0.00 | 0.00 | 76 | 1012.1 |
| 20260509195805 | 67 | 246 | 4.3 | 11.3 | 0.00 | 0.00 | 0.00 | 75 | 1012.4 |
| 20260509195259 | 68 | 211 | 6.1 | 9.6 | 0.00 | 0.00 | 0.00 | 73 | 1012.4 |
| 20260509194243 | 67 | 256 | 3.5 | 8.7 | 0.00 | 0.00 | 0.00 | 75 | 1012.4 |
| 20260509193735 | 67 | 266 | 6.1 | 8.7 | 0.00 | 0.00 | 0.00 | 75 | 1012.4 |
| 20260509193227 | 68 | 261 | 4.3 | 11.3 | 0.00 | 0.00 | 0.00 | 74 | 1012.4 |
| 20260509192720 | 67 | 273 | 5.2 | 11.3 | 0.00 | 0.00 | 0.00 | 75 | 1012.4 |
| 20260509192212 | 67 | 256 | 4.3 | 8.7 | 0.00 | 0.00 | 0.00 | 75 | 1012.4 |
| 20260509191705 | 66 | 243 | 7.0 | 8.7 | 0.00 | 0.00 | 0.00 | 77 | 1012.4 |
| 20260509191157 | 67 | 252 | 6.1 | 9.6 | 0.00 | 0.00 | 0.00 | 76 | 1012.4 |
| 20260509190649 | 67 | 217 | 5.2 | 9.6 | 0.00 | 0.00 | 0.00 | 76 | 1012.8 |
| 20260509190142 | 67 | 226 | 3.5 | 9.6 | 0.00 | 0.00 | 0.00 | 75 | 1012.8 |
| 20260509185634 | 66 | 213 | 3.5 | 8.7 | 0.00 | 0.00 | 0.00 | 77 | 1012.8 |
| 20260509185127 | 67 | 261 | 4.3 | 8.7 | 0.00 | 0.00 | 0.00 | 76 | 1012.8 |
| 20260509184619 | 66 | 247 | 7.8 | 9.6 | 0.00 | 0.00 | 0.00 | 77 | 1012.8 |
| 20260509184111 | 66 | 328 | 1.7 | 11.3 | 0.00 | 0.00 | 0.00 | 77 | 1012.8 |
| 20260509183603 | 66 | 210 | 7.8 | 11.3 | 0.00 | 0.00 | 0.00 | 78 | 1012.8 |
| 20260509183057 | 66 | 220 | 7.0 | 11.3 | 0.00 | 0.00 | 0.00 | 78 | 1012.8 |
| 20260509181533 | 67 | 187 | 3.5 | 9.6 | 0.00 | 0.00 | 0.00 | 77 | 1012.8 |
| 20260509181026 | 67 | 188 | 3.5 | 8.7 | 0.00 | 0.00 | 0.00 | 77 | 1013.1 |
| 20260509180518 | 66 | 222 | 5.2 | 8.7 | 0.00 | 0.00 | 0.00 | 76 | 1013.1 |
| 20260509180011 | 67 | 198 | 5.2 | 9.6 | 0.00 | 0.00 | 0.00 | 77 | 1013.1 |
| 20260509174955 | 68 | 256 | 3.5 | 8.7 | 0.00 | 0.00 | 0.00 | 75 | 1013.1 |
| 20260509174448 | 67 | 260 | 2.6 | 6.1 | 0.00 | 0.00 | 0.00 | 75 | 1013.1 |
| 20260509173939 | 67 | 266 | 2.6 | 6.1 | 0.00 | 0.00 | 0.00 | 77 | 1012.8 |
| 20260509173433 | 66 | 249 | 1.7 | 7.0 | 0.00 | 0.00 | 0.00 | 77 | 1013.1 |
| 20260509172925 | 66 | 246 | 4.3 | 7.0 | 0.00 | 0.00 | 0.00 | 77 | 1012.8 |
| 20260509172417 | 66 | 6 | 0.9 | 7.8 | 0.00 | 0.00 | 0.00 | 79 | 1012.8 |
| 20260509171910 | 65 | 244 | 3.5 | 7.8 | 0.00 | 0.00 | 0.00 | 80 | 1013.1 |
| 20260509171402 | 65 | 249 | 2.6 | 8.7 | 0.00 | 0.00 | 0.00 | 80 | 1012.8 |
| 20260509170855 | 65 | 242 | 6.1 | 8.7 | 0.00 | 0.00 | 0.00 | 78 | 1012.8 |
| 20260509170346 | 65 | 241 | 0.9 | 3.5 | 0.00 | 0.00 | 0.00 | 78 | 1012.8 |
| 20260509165839 | 65 | 196 | 2.6 | 5.2 | 0.00 | 0.00 | 0.00 | 79 | 1012.8 |
| 20260509165331 | 65 | 256 | 2.6 | 5.2 | 0.00 | 0.00 | 0.00 | 78 | 1012.8 |
| 20260509164824 | 65 | 167 | 4.3 | 5.2 | 0.00 | 0.00 | 0.00 | 78 | 1012.4 |
| 20260509164316 | 65 | 259 | 0.9 | 2.6 | 0.00 | 0.00 | 0.00 | 79 | 1012.4 |
| 20260509163809 | 65 | 253 | 0.9 | 2.6 | 0.00 | 0.00 | 0.00 | 79 | 1012.8 |
| 20260509162754 | 64 | 125 | 0.9 | 2.6 | 0.00 | 0.00 | 0.00 | 80 | 1012.4 |
| 20260509162246 | 64 | 304 | 0.0 | 2.6 | 0.00 | 0.00 | 0.00 | 82 | 1012.8 |
| 20260509161738 | 64 | 207 | 0.9 | 2.6 | 0.00 | 0.00 | 0.00 | 83 | 1012.8 |
| 20260509161231 | 63 | 256 | 1.7 | 2.6 | 0.00 | 0.00 | 0.00 | 84 | 1012.8 |
| 20260509160723 | 63 | 229 | 1.7 | 2.6 | 0.00 | 0.00 | 0.00 | 85 | 1012.8 |
| 20260509160216 | 63 | 281 | 0.0 | 2.6 | 0.00 | 0.00 | 0.00 | 86 | 1012.8 |
| 20260509155707 | 62 | 238 | 0.9 | 2.6 | 0.00 | 0.00 | 0.00 | 86 | 1012.8 |
| 20260509155200 | 62 | 285 | 0.9 | 2.6 | 0.00 | 0.00 | 0.00 | 86 | 1012.8 |
| 20260509154653 | 62 | 253 | 0.9 | 2.6 | 0.00 | 0.00 | 0.00 | 86 | 1012.8 |
| 20260509154146 | 62 | 251 | 0.9 | 1.7 | 0.00 | 0.00 | 0.00 | 86 | 1012.8 |
| 20260509152622 | 62 | 263 | 0.0 | 3.5 | 0.00 | 0.00 | 0.00 | 88 | 1013.1 |
| 20260509151101 | 61 | 289 | 0.9 | 2.6 | 0.00 | 0.00 | 0.00 | 89 | 1012.8 |
| 20260509150552 | 61 | 272 | 0.9 | 3.5 | 0.00 | 0.00 | 0.00 | 89 | 1012.8 |
| 20260509150044 | 61 | 267 | 0.9 | 3.5 | 0.00 | 0.00 | 0.00 | 89 | 1012.8 |
| 20260509145537 | 61 | 229 | 2.6 | 3.5 | 0.00 | 0.00 | 0.00 | 89 | 1012.8 |
| 20260509145029 | 61 | 249 | 1.7 | 3.5 | 0.00 | 0.00 | 0.00 | 90 | 1012.8 |
| 20260509144522 | 60 | 230 | 1.7 | 3.5 | 0.00 | 0.00 | 0.00 | 90 | 1013.1 |
| 20260509144013 | 60 | 250 | 0.9 | 2.6 | 0.00 | 0.00 | 0.00 | 90 | 1012.8 |
| 20260509143506 | 60 | 223 | 1.7 | 2.6 | 0.00 | 0.00 | 0.00 | 90 | 1012.8 |
| 20260509142959 | 60 | 234 | 1.7 | 1.7 | 0.00 | 0.00 | 0.00 | 90 | 1012.8 |
| 20260509141943 | 60 | 261 | 0.9 | 2.6 | 0.00 | 0.00 | 0.00 | 90 | 1012.4 |
| 20260509140420 | 60 | 256 | 0.0 | 2.6 | 0.00 | 0.00 | 0.00 | 90 | 1012.8 |
| 20260509135913 | 60 | 253 | 0.9 | 2.6 | 0.00 | 0.00 | 0.00 | 90 | 1012.8 |
| 20260509135405 | 60 | 273 | 0.0 | 3.5 | 0.00 | 0.00 | 0.00 | 89 | 1012.4 |
| 20260509134858 | 60 | 254 | 1.7 | 3.5 | 0.00 | 0.00 | 0.00 | 89 | 1012.4 |
| 20260509134350 | 60 | 234 | 1.7 | 2.6 | 0.00 | 0.00 | 0.00 | 89 | 1012.4 |
| 20260509133843 | 61 | 243 | 2.6 | 2.6 | 0.00 | 0.00 | 0.00 | 88 | 1012.4 |
| 20260509133335 | 61 | 224 | 0.9 | 2.6 | 0.00 | 0.00 | 0.00 | 88 | 1012.4 |
| 20260509132828 | 61 | 195 | 0.9 | 2.6 | 0.00 | 0.00 | 0.00 | 87 | 1012.4 |
| 20260509132320 | 61 | 252 | 0.0 | 2.6 | 0.00 | 0.00 | 0.00 | 88 | 1012.4 |
| 20260509131812 | 61 | 235 | 0.9 | 2.6 | 0.00 | 0.00 | 0.00 | 88 | 1012.4 |
| 20260509130757 | 61 | 341 | 0.0 | 0.9 | 0.00 | 0.00 | 0.00 | 88 | 1012.4 |
| 20260509130249 | 61 | 345 | 0.0 | 0.9 | 0.00 | 0.00 | 0.00 | 88 | 1012.4 |
| 20260509125742 | 61 | 339 | 0.0 | 0.9 | 0.00 | 0.00 | 0.00 | 88 | 1012.1 |
| 20260509125234 | 60 | 342 | 0.9 | 0.9 | 0.00 | 0.00 | 0.00 | 89 | 1012.1 |
| 20260509124726 | 60 | 345 | 0.9 | 6.1 | 0.00 | 0.00 | 0.00 | 88 | 1012.1 |
| 20260509124219 | 60 | 2 | 0.9 | 6.1 | 0.00 | 0.00 | 0.00 | 89 | 1012.1 |
| 20260509123712 | 60 | 12 | 1.7 | 3.5 | 0.00 | 0.00 | 0.00 | 89 | 1012.4 |
| 20260509122656 | 60 | 351 | 0.0 | 3.5 | 0.00 | 0.00 | 0.00 | 89 | 1012.1 |
| 20260509122149 | 60 | 129 | 2.6 | 3.5 | 0.00 | 0.00 | 0.00 | 89 | 1012.1 |
| 20260509121641 | 60 | 5 | 0.0 | 3.5 | 0.00 | 0.00 | 0.00 | 89 | 1012.1 |
| 20260509120626 | 60 | 86 | 1.7 | 2.6 | 0.00 | 0.00 | 0.00 | 89 | 1012.1 |
| 20260509115610 | 60 | 261 | 0.0 | 3.5 | 0.00 | 0.00 | 0.00 | 89 | 1012.1 |
| 20260509115102 | 60 | 51 | 1.7 | 2.6 | 0.00 | 0.00 | 0.00 | 89 | 1012.1 |
| 20260509114555 | 60 | 150 | 1.7 | 1.7 | 0.00 | 0.00 | 0.00 | 89 | 1012.1 |
| 20260509114047 | 60 | 18 | 0.9 | 1.7 | 0.00 | 0.00 | 0.00 | 89 | 1012.1 |
| 20260509113540 | 60 | 46 | 1.7 | 1.7 | 0.00 | 0.00 | 0.00 | 89 | 1012.1 |
| 20260509113033 | 60 | 4 | 0.9 | 1.7 | 0.00 | 0.00 | 0.00 | 89 | 1012.1 |
| 20260509112525 | 60 | 355 | 0.0 | 1.7 | 0.00 | 0.00 | 0.00 | 89 | 1012.1 |
| 20260509112018 | 60 | 183 | 0.9 | 1.7 | 0.00 | 0.00 | 0.00 | 90 | 1012.1 |
| 20260509111002 | 60 | 355 | 0.9 | 1.7 | 0.00 | 0.00 | 0.00 | 90 | 1012.1 |
| 20260509110454 | 60 | 1 | 0.0 | 2.6 | 0.00 | 0.00 | 0.00 | 90 | 1012.1 |
| 20260509105947 | 60 | 6 | 0.0 | 2.6 | 0.00 | 0.00 | 0.00 | 90 | 1012.1 |
| 20260509105439 | 60 | 34 | 0.0 | 3.5 | 0.00 | 0.00 | 0.00 | 90 | 1012.4 |
| 20260509104932 | 60 | 103 | 2.6 | 3.5 | 0.00 | 0.00 | 0.00 | 90 | 1012.1 |
| 20260509104424 | 60 | 114 | 2.6 | 3.5 | 0.00 | 0.00 | 0.00 | 90 | 1012.4 |
| 20260509103917 | 60 | 248 | 0.9 | 3.5 | 0.00 | 0.00 | 0.00 | 90 | 1012.4 |
| 20260509102902 | 60 | 225 | 0.9 | 3.5 | 0.00 | 0.00 | 0.00 | 90 | 1012.4 |
| 20260509101846 | 60 | 286 | 0.0 | 2.6 | 0.00 | 0.00 | 0.00 | 91 | 1012.4 |
| 20260509101339 | 60 | 143 | 1.7 | 2.6 | 0.00 | 0.00 | 0.00 | 90 | 1012.4 |
| 20260509100830 | 59 | 147 | 0.0 | 2.6 | 0.00 | 0.00 | 0.00 | 91 | 1012.4 |
| 20260509100323 | 59 | 150 | 1.7 | 2.6 | 0.00 | 0.00 | 0.00 | 91 | 1012.4 |
| 20260509095309 | 59 | 186 | 0.0 | 3.5 | 0.00 | 0.00 | 0.00 | 91 | 1012.4 |
| 20260509094800 | 59 | 36 | 1.7 | 2.6 | 0.00 | 0.00 | 0.00 | 91 | 1012.4 |
| 20260509094252 | 59 | 193 | 1.7 | 3.5 | 0.00 | 0.00 | 0.00 | 91 | 1012.4 |
| 20260509093237 | 59 | 111 | 1.7 | 3.5 | 0.00 | 0.00 | 0.00 | 91 | 1012.8 |
| 20260509092223 | 59 | 29 | 0.9 | 2.6 | 0.00 | 0.00 | 0.00 | 91 | 1012.4 |
| 20260509091714 | 59 | 250 | 0.0 | 2.6 | 0.00 | 0.00 | 0.00 | 91 | 1012.8 |
| 20260509091207 | 59 | 218 | 0.9 | 2.6 | 0.00 | 0.00 | 0.00 | 91 | 1012.8 |
| 20260509090700 | 59 | 226 | 0.0 | 1.7 | 0.00 | 0.00 | 0.00 | 91 | 1012.8 |
| 20260509090151 | 59 | 230 | 0.0 | 1.7 | 0.00 | 0.00 | 0.00 | 91 | 1012.4 |
| 20260509085644 | 59 | 208 | 0.9 | 1.7 | 0.00 | 0.00 | 0.00 | 91 | 1012.8 |
| 20260509085137 | 59 | 153 | 1.7 | 1.7 | 0.00 | 0.00 | 0.00 | 91 | 1012.8 |
| 20260509084629 | 59 | 170 | 0.9 | 2.6 | 0.00 | 0.00 | 0.00 | 91 | 1012.8 |
| 20260509084122 | 59 | 146 | 0.9 | 2.6 | 0.00 | 0.00 | 0.00 | 91 | 1012.8 |
| 20260509083613 | 59 | 137 | 1.7 | 1.7 | 0.00 | 0.00 | 0.00 | 91 | 1012.8 |
| 20260509083107 | 59 | 62 | 1.7 | 2.6 | 0.00 | 0.00 | 0.00 | 91 | 1012.8 |
| 20260509082558 | 59 | 358 | 0.9 | 2.6 | 0.00 | 0.00 | 0.00 | 91 | 1012.8 |
| 20260509082051 | 59 | 96 | 0.9 | 2.6 | 0.00 | 0.00 | 0.00 | 91 | 1012.8 |
| 20260509081544 | 59 | 202 | 0.9 | 2.6 | 0.00 | 0.00 | 0.00 | 91 | 1013.1 |
| 20260509081036 | 59 | 152 | 1.7 | 2.6 | 0.00 | 0.00 | 0.00 | 91 | 1012.8 |
| 20260509080528 | 59 | 241 | 0.9 | 3.5 | 0.00 | 0.00 | 0.00 | 91 | 1013.1 |
| 20260509080020 | 59 | 235 | 0.0 | 3.5 | 0.00 | 0.00 | 0.00 | 91 | 1013.1 |
| 20260509075513 | 59 | 253 | 1.7 | 3.5 | 0.00 | 0.00 | 0.00 | 91 | 1013.1 |
| 20260509075005 | 59 | 267 | 0.9 | 3.5 | 0.00 | 0.00 | 0.00 | 91 | 1013.4 |
| 20260509074458 | 59 | 232 | 2.6 | 3.5 | 0.00 | 0.00 | 0.00 | 91 | 1013.4 |
| 20260509073951 | 59 | 256 | 0.9 | 3.5 | 0.00 | 0.00 | 0.00 | 91 | 1013.4 |
| 20260509073443 | 59 | 200 | 1.7 | 3.5 | 0.00 | 0.00 | 0.00 | 91 | 1013.1 |
| 20260509072935 | 59 | 241 | 2.6 | 3.5 | 0.00 | 0.00 | 0.00 | 91 | 1013.4 |
| 20260509072428 | 59 | 227 | 2.6 | 2.6 | 0.00 | 0.00 | 0.00 | 91 | 1013.1 |
| 20260509071920 | 59 | 237 | 1.7 | 1.7 | 0.00 | 0.00 | 0.00 | 91 | 1013.1 |
| 20260509070904 | 59 | 265 | 0.0 | 2.6 | 0.00 | 0.00 | 0.00 | 91 | 1013.4 |
| 20260509070357 | 59 | 248 | 0.0 | 2.6 | 0.00 | 0.00 | 0.00 | 91 | 1013.4 |
| 20260509065849 | 59 | 282 | 0.9 | 2.6 | 0.00 | 0.00 | 0.00 | 91 | 1013.4 |
| 20260509065342 | 59 | 295 | 0.9 | 1.7 | 0.00 | 0.00 | 0.00 | 91 | 1013.4 |
| 20260509064834 | 59 | 293 | 1.7 | 1.7 | 0.00 | 0.00 | 0.00 | 91 | 1013.4 |
| 20260509064327 | 59 | 282 | 0.0 | 0.9 | 0.00 | 0.00 | 0.00 | 91 | 1013.4 |
| 20260509063311 | 59 | 283 | 0.0 | 2.6 | 0.00 | 0.00 | 0.00 | 91 | 1013.4 |
| 20260509061242 | 59 | 176 | 0.0 | 2.6 | 0.00 | 0.00 | 0.00 | 91 | 1013.4 |
| 20260509060734 | 59 | 256 | 0.0 | 2.6 | 0.00 | 0.00 | 0.00 | 91 | 1013.4 |
| 20260509060226 | 59 | 259 | 0.0 | 2.6 | 0.00 | 0.00 | 0.00 | 91 | 1013.4 |
| 20260509055719 | 59 | 254 | 0.9 | 2.6 | 0.00 | 0.00 | 0.00 | 91 | 1013.4 |
| 20260509055211 | 59 | 259 | 0.0 | 1.7 | 0.00 | 0.00 | 0.00 | 91 | 1013.8 |
| 20260509054704 | 59 | 262 | 0.9 | 1.7 | 0.00 | 0.00 | 0.00 | 91 | 1013.4 |
| 20260509053648 | 59 | 261 | 0.0 | 2.6 | 0.00 | 0.00 | 0.00 | 91 | 1013.4 |
| 20260509053140 | 59 | 276 | 0.9 | 2.6 | 0.00 | 0.00 | 0.00 | 91 | 1013.4 |
| 20260509052633 | 59 | 271 | 0.0 | 1.7 | 0.00 | 0.00 | 0.00 | 91 | 1013.8 |
| 20260509052125 | 59 | 310 | 0.9 | 2.6 | 0.00 | 0.00 | 0.00 | 91 | 1013.8 |
| 20260509051617 | 59 | 282 | 1.7 | 2.6 | 0.00 | 0.00 | 0.00 | 91 | 1013.4 |
| 20260509051110 | 59 | 273 | 0.9 | 2.6 | 0.00 | 0.00 | 0.00 | 91 | 1013.4 |
| 20260509050602 | 59 | 266 | 2.6 | 2.6 | 0.00 | 0.00 | 0.00 | 91 | 1013.4 |
| 20260509045547 | 59 | 288 | 0.0 | 1.7 | 0.00 | 0.00 | 0.00 | 91 | 1013.4 |
| 20260509045040 | 59 | 272 | 0.9 | 2.6 | 0.00 | 0.00 | 0.00 | 91 | 1013.4 |
| 20260509044024 | 59 | 251 | 0.9 | 2.6 | 0.00 | 0.00 | 0.00 | 91 | 1013.4 |
| 20260509043517 | 59 | 243 | 1.7 | 2.6 | 0.00 | 0.00 | 0.00 | 91 | 1013.4 |
| 20260509043009 | 59 | 312 | 1.7 | 3.5 | 0.00 | 0.00 | 0.00 | 91 | 1013.4 |
| 20260509041954 | 58 | 294 | 0.0 | 1.7 | 0.00 | 0.00 | 0.00 | 91 | 1013.1 |
| 20260509041447 | 58 | 261 | 0.0 | 3.5 | 0.00 | 0.00 | 0.00 | 91 | 1013.1 |
| 20260509040939 | 58 | 243 | 0.9 | 5.2 | 0.00 | 0.00 | 0.00 | 91 | 1013.1 |
| 20260509035924 | 59 | 215 | 3.5 | 6.1 | 0.00 | 0.00 | 0.00 | 91 | 1013.1 |
| 20260509035417 | 59 | 214 | 3.5 | 6.1 | 0.00 | 0.00 | 0.00 | 91 | 1013.1 |
| 20260509034908 | 59 | 298 | 1.7 | 6.1 | 0.00 | 0.00 | 0.00 | 91 | 1013.4 |
| 20260509033853 | 59 | 210 | 3.5 | 6.1 | 0.00 | 0.00 | 0.00 | 90 | 1013.1 |
| 20260509033346 | 59 | 258 | 2.6 | 6.1 | 0.00 | 0.00 | 0.00 | 90 | 1013.1 |
| 20260509031823 | 59 | 217 | 2.6 | 7.0 | 0.00 | 0.00 | 0.00 | 90 | 1012.8 |
| 20260509031315 | 59 | 259 | 3.5 | 6.1 | 0.00 | 0.00 | 0.00 | 90 | 1012.8 |